Overview Statistics Trail Chart Weather Telemetry Raw packets
 

This is the latest recevied weather packets stored in our database for station/object W5ITZ. If no packets are shown the sender has not sent any weather packets the latest 10 day(s).

<< 84 85 86 87 88 89 90 >>
Time Temp. Humidity Pressure Rain* Wind** Luminosity Snow
1787606769 35.56° C 46% 1013.5 hPa 0 mm - 610 W/m² -
1787606463 35.56° C 46% 1013.6 hPa 0 mm - 628 W/m² -
1787606162 36.11° C 45% 1013.8 hPa 0 mm - 646 W/m² -
1787605861 36.11° C 45% 1013.8 hPa 0 mm - 662 W/m² -
1787605560 36.11° C 47% 1013.8 hPa 0 mm - 678 W/m² -
1787605256 36.11° C 46% 1013.9 hPa 0 mm - 695 W/m² -
1787604955 36.11° C 46% 1013.9 hPa 0 mm - 711 W/m² -
1787604650 35.56° C 47% 1014 hPa 0 mm - 729 W/m² -
1787604350 36.11° C 45% 1014 hPa 0 mm - 741 W/m² -
1787604045 36.11° C 47% 1013.9 hPa 0 mm - 758 W/m² -
1787603739 36.11° C 47% 1013.9 hPa 0 mm - 772 W/m² -
1787603434 36.11° C 47% 1014 hPa 0 mm - 788 W/m² -
1787603130 36.11° C 46% 1014 hPa 0 mm - 799 W/m² -
1787602827 36.11° C 47% 1014.1 hPa 0 mm - 813 W/m² -
1787602526 36.11° C 47% 1014.3 hPa 0 mm - 826 W/m² -
1787602222 36.67° C 47% 1014.3 hPa 0 mm - 836 W/m² -
1787601920 36.11° C 42% 1014.4 hPa 0 mm - 851 W/m² -
1787601616 36.67° C 44% 1014.5 hPa 0 mm - 836 W/m² -
1787601311 36.67° C 44% 1014.5 hPa 0 mm - 872 W/m² -
1787601010 36.67° C 46% 1014.5 hPa 0 mm - 879 W/m² -
1787600705 36.11° C 45% 1014.8 hPa 0 mm - 905 W/m² -
1787600401 36.11° C 44% 1014.9 hPa 0 mm - 912 W/m² -
1787600096 36.11° C 44% 1015 hPa 0 mm - 912 W/m² -
1787599792 36.11° C 45% 1015.2 hPa 0 mm - 943 W/m² -
1787599489 36.11° C 46% 1015.3 hPa 0 mm - 933 W/m² -

* Rain latest hour (hover to see other rain measurements)
** Current wind speed in m/s (hover to see current wind gust speed)